Location: Old Broadwell Mill Observatory
(33.8015°N, 85.8137°W)
Time: 00:28:14
(UTC-05:00)

Gurwin Techsat 1B - Visible Passes

Search period start: 24 June 2018 00:00
Search period end: 04 July 2018 00:00
Orbit: 812 x 814 km, 98.7° (Epoch: 23 June)

Date Brightness Start Highest point End Pass type
(mag) Time Alt. Az. Time Alt. Az. Time Alt. Az.
24 Jun 9.2 02:05:47 10° NNE 02:10:46 47° E 02:10:46 47° E visible
24 Jun 10.2 03:46:51 10° NNW 03:50:26 19° WNW 03:51:58 17° W visible
25 Jun 10.1 01:43:29 10° NE 01:47:38 27° E 01:47:38 27° E visible
25 Jun 9.6 03:23:14 10° N 03:27:50 30° WNW 03:28:50 28° W visible
26 Jun 10.7 01:21:43 10° NE 01:24:30 16° E 01:24:30 16° E visible
26 Jun 8.9 03:00:01 10° N 03:05:08 50° WNW 03:05:42 48° W visible
27 Jun 8.4 02:37:03 10° NNE 02:42:23 85° WNW 02:42:34 82° WSW visible
28 Jun 8.9 02:14:19 10° NNE 02:19:26 57° E 02:19:26 57° E visible
28 Jun 10.4 03:55:56 10° NNW 03:58:57 15° WNW 04:00:39 13° W visible
29 Jun 9.8 01:51:52 10° NNE 01:56:18 33° E 01:56:18 33° E visible
29 Jun 9.9 03:32:06 10° NNW 03:36:23 25° WNW 03:37:30 23° W visible
30 Jun 10.5 01:29:51 10° NE 01:33:10 20° E 01:33:10 20° E visible
30 Jun 9.2 03:08:45 10° N 03:13:44 41° WNW 03:14:22 39° W visible
01 Jul 11.1 01:09:04 10° ENE 01:10:01 11° E 01:10:01 11° E visible
01 Jul 8.5 02:45:42 10° N 02:51:00 70° WNW 02:51:14 69° W visible
02 Jul 8.7 02:22:52 10° NNE 02:28:05 70° E 02:28:05 70° E visible
02 Jul 10.6 04:05:16 10° NW 04:07:28 13° WNW 04:09:17 11° W visible
03 Jul 9.5 02:00:18 10° NNE 02:04:57 40° E 02:04:57 40° E visible
03 Jul 10.1 03:41:02 10° NNW 03:44:56 21° WNW 03:46:09 19° W visible
